Theta_e
320 319 320 320 321 321 319 319 320 321 321 320 322 320 320 320 321 321 320 320 320 322 323 321 320 319 320 319 319 320 320 321 322 323 326 329 331 332 337 339 340 342 343 343 345 346 345 341 339 339 339 340 340 339 339 339 339 339 338 338 338 338 337 338 339 339 338 338 338 337 337 337 337 335 335 335 336 336 335 335 335 334 334 334 334
318 318 318 318 319 319 319 318 317 319 319 318 320 320 318 319 319 319 318 318 318 319 320 319 318 318 319 318 318 318 320 319 319 320 323 325 327 331 333 336 337 339 340 342 344 345 343 337 339 340 340 341 341 341 340 340 340 340 339 338 338 338 338 337 338 338 337 337 338 338 337 336 336 336 335 336 336 336 335 335 334 334 334 334 334
318 317 317 317 317 317 318 317 316 316 318 317 319 319 318 318 318 318 317 316 317 318 318 317 317 317 318 317 317 319 318 318 317 318 318 320 322 324 326 332 335 337 337 338 340 343 343 337 335 339 341 341 341 340 340 340 340 340 339 339 338 338 337 337 338 338 337 337 337 336 336 336 335 336 336 335 335 335 335 335 334 334 334 333 333
319 318 317 316 316 316 316 316 316 316 317 317 317 317 318 317 317 318 318 316 316 317 318 316 316 316 316 317 317 318 317 316 316 316 317 317 317 318 321 324 329 334 336 338 338 339 343 341 339 339 339 340 341 341 341 341 341 340 339 339 339 339 338 337 338 338 337 337 336 336 335 335 335 335 336 336 336 335 335 335 334 334 334 333 333
317 318 319 315 315 315 315 317 315 315 316 317 316 316 316 316 315 317 317 314 314 315 315 315 314 315 316 316 317 318 316 316 317 316 315 315 315 315 317 321 322 326 330 335 338 338 340 341 340 339 338 339 341 341 342 341 340 340 339 339 339 339 338 337 337 336 337 336 335 334 334 332 332 334 334 335 336 336 336 335 335 335 334 334 334
315 315 316 315 315 314 314 315 315 315 315 316 314 314 314 314 315 313 316 313 312 313 313 312 313 314 315 316 316 318 315 315 316 316 315 314 315 314 315 316 318 320 323 327 330 335 339 340 339 339 340 339 340 341 341 340 340 340 339 339 339 339 339 339 338 336 335 334 334 334 333 333 332 334 333 334 335 336 336 336 335 335 335 334 333
315 314 314 314 314 314 314 314 315 315 313 315 314 313 313 313 316 312 312 312 311 313 312 311 312 313 314 316 315 318 314 315 315 314 314 315 314 313 314 315 316 317 319 321 323 326 330 333 338 339 340 340 340 341 341 340 339 339 339 340 340 340 340 339 338 338 336 334 334 334 334 333 334 334 334 334 335 335 336 336 336 335 335 335 334
314 313 312 312 313 313 314 315 314 313 313 313 315 313 312 313 314 313 311 310 312 310 312 311 312 312 313 314 315 319 313 314 315 313 314 315 314 313 313 314 316 316 318 317 319 320 325 327 328 329 330 331 333 336 339 340 340 340 339 340 340 340 340 339 336 337 336 333 333 334 334 334 334 334 334 335 335 335 334 335 336 336 335 335 335
315 314 313 312 312 313 314 314 314 312 312 312 312 315 311 312 312 316 311 311 310 310 311 311 311 312 312 313 314 316 313 314 315 314 313 314 314 313 313 313 316 317 314 315 316 318 319 322 323 324 326 327 328 329 329 331 335 339 339 340 340 340 340 338 337 335 335 334 332 333 334 334 334 334 335 335 335 334 334 333 333 335 336 336 335
314 314 313 315 311 312 313 314 313 312 312 312 312 313 312 311 312 312 313 311 310 310 310 310 310 311 312 313 313 314 313 314 315 316 313 312 314 312 313 313 314 314 314 315 314 316 316 317 319 320 321 324 325 326 327 329 330 332 336 339 340 339 338 338 337 334 332 334 334 333 333 333 333 334 335 335 335 334 335 333 333 333 334 336 335
313 315 314 312 311 311 312 313 314 312 311 311 311 313 314 310 311 312 311 311 311 310 310 310 310 309 312 312 312 312 314 314 313 313 313 313 315 315 312 313 312 313 315 314 314 314 314 315 316 315 315 320 323 324 325 326 328 330 332 334 339 340 340 339 339 339 336 335 336 335 334 333 333 333 334 334 334 334 335 335 334 334 333 334 334
312 313 314 313 311 311 311 312 314 311 311 311 311 311 311 310 310 314 310 310 311 311 311 310 309 308 313 311 311 311 317 312 311 311 313 312 312 315 313 313 313 313 313 314 314 313 314 314 319 314 315 316 319 321 322 323 325 328 330 331 333 336 340 340 339 338 333 333 333 332 333 334 333 333 333 334 334 334 334 335 334 334 334 335 334
315 312 311 316 312 311 310 311 313 313 312 311 310 312 314 312 312 312 312 308 308 310 311 310 307 307 307 308 309 311 316 312 309 311 311 312 313 313 314 313 313 313 314 315 313 314 314 314 314 314 313 315 314 317 319 320 323 328 331 332 333 334 335 338 339 337 334 335 335 335 334 333 333 334 334 334 334 334 334 334 335 334 334 334 334
318 314 313 310 310 310 310 310 311 313 313 313 315 316 310 310 310 309 309 310 307 309 311 307 305 304 304 304 306 307 311 310 308 309 310 310 312 312 314 311 312 313 314 314 313 313 312 314 313 313 313 314 314 314 314 315 319 329 334 333 334 336 337 338 338 336 336 335 334 334 335 335 335 334 334 334 334 334 334 334 334 335 335 334 334
313 317 311 311 310 310 310 310 310 315 309 309 308 309 309 309 309 309 308 308 310 311 311 310 305 305 304 305 301 300 305 305 307 308 309 309 311 311 313 312 311 312 314 313 313 313 312 313 313 313 313 313 313 313 314 315 320 330 333 333 334 335 335 334 334 333 334 335 334 334 334 335 334 335 335 335 335 334 334 334 334 334 334 334 334
311 316 311 309 309 310 309 309 310 314 308 308 308 308 308 309 309 311 308 306 304 306 312 310 309 306 301 302 300 300 298 301 303 307 307 307 308 309 310 311 311 310 314 311 312 313 313 313 313 313 313 313 314 314 313 315 320 328 330 329 329 326 328 330 331 331 331 330 331 332 332 332 335 337 336 335 335 334 334 334 335 334 335 334 335
311 311 318 309 309 309 309 310 310 311 311 308 308 308 307 308 309 309 308 306 306 305 308 311 310 312 306 303 300 298 298 300 303 304 304 306 306 308 311 311 310 311 311 310 312 312 313 314 313 313 313 313 314 313 314 314 318 326 328 328 326 324 326 328 329 330 330 329 328 329 330 331 332 335 336 336 336 335 334 335 334 335 334 334 334
310 310 312 318 309 309 309 309 310 311 314 310 308 308 308 308 311 308 309 310 306 306 305 310 311 313 309 306 305 300 301 303 301 299 306 307 307 307 309 309 309 310 310 310 310 311 314 313 313 313 313 313 313 313 313 314 318 324 328 330 324 323 324 324 325 327 329 330 329 328 328 328 329 330 331 333 336 336 336 334 333 334 334 334 333
311 309 310 313 312 309 309 309 309 309 318 310 310 309 309 308 315 310 309 313 308 307 306 305 307 308 309 310 311 312 307 305 301 302 299 304 304 306 306 307 308 308 308 309 309 311 312 312 312 310 312 313 313 313 313 313 316 320 323 324 323 321 322 322 322 323 325 327 327 327 328 327 327 327 328 329 330 333 333 334 334 334 334 334 334
309 308 309 311 317 313 309 309 309 309 320 313 310 310 310 310 313 310 310 311 308 308 307 306 304 306 310 308 308 310 308 307 305 303 302 299 301 306 306 307 308 308 309 308 310 311 310 311 310 310 312 311 313 312 312 312 315 317 320 323 321 321 320 320 320 321 322 324 325 325 327 327 327 327 327 328 329 330 333 334 335 335 335 335 334
307 308 308 309 318 316 313 309 310 309 318 314 311 310 309 309 309 309 308 309 309 311 308 307 307 306 305 306 306 306 305 306 306 305 302 299 299 300 300 304 305 306 309 309 308 310 311 311 311 313 314 314 312 311 311 313 314 316 319 321 321 320 319 319 319 319 319 320 322 323 324 325 326 326 327 327 328 329 330 332 333 334 335 335 334
308 310 309 308 309 311 315 310 310 311 320 312 309 309 309 309 309 309 310 308 308 308 309 308 307 307 305 305 303 303 304 304 303 302 302 302 297 297 299 298 296 300 305 307 307 307 308 309 309 309 310 311 311 311 311 312 312 315 317 320 320 319 320 318 318 318 319 319 320 320 322 323 324 325 326 326 326 327 328 330 331 333 333 333 334
307 309 308 308 309 315 312 310 313 315 313 309 309 308 309 309 310 310 309 307 307 307 306 306 305 304 303 303 303 303 301 299 299 301 300 299 298 297 298 299 298 297 301 303 304 304 306 308 308 309 310 310 311 310 311 312 312 314 317 320 321 319 319 320 318 317 318 318 319 319 320 321 322 323 324 325 325 326 327 327 330 331 333 333 333
307 307 309 309 311 310 311 309 311 310 310 310 310 309 310 309 309 308 306 306 306 305 303 302 301 300 300 302 301 302 301 300 300 301 300 299 298 297 297 298 298 299 300 302 303 303 306 306 307 308 309 309 309 310 312 312 312 315 318 318 320 320 319 320 319 317 317 317 317 318 319 319 321 322 323 324 324 325 326 326 327 332 331 330 330
307 306 308 307 311 310 310 309 309 310 311 309 309 309 308 307 306 303 303 303 303 302 300 300 300 298 298 300 300 298 298 300 300 300 300 300 299 296 297 298 295 297 299 300 300 302 304 305 307 308 308 309 309 310 310 312 313 313 316 317 319 320 321 320 320 318 317 317 316 316 317 318 320 321 323 325 324 323 323 324 328 329 330 330 330
307 307 307 310 310 310 310 309 309 308 308 307 306 306 305 304 304 303 302 301 301 300 299 300 299 299 298 296 297 296 298 299 299 299 298 297 296 295 293 294 294 293 296 297 298 297 300 303 304 306 307 308 308 309 310 310 311 312 315 315 316 318 320 321 321 319 317 317 317 316 316 317 318 321 324 327 327 326 327 329 329 329 329 329 329
307 308 310 309 310 309 308 306 306 306 305 304 304 303 303 302 302 302 303 301 299 300 298 298 296 296 296 296 297 296 297 297 298 298 298 297 295 294 292 289 289 291 291 293 294 295 296 299 302 303 306 307 306 305 305 307 308 310 312 312 313 315 318 319 321 319 317 317 317 316 316 316 317 320 323 327 329 329 328 328 329 328 328 328 329
308 310 309 309 308 306 306 305 305 304 304 303 302 301 301 300 300 299 299 300 298 296 297 296 295 296 295 296 295 294 295 296 297 297 296 296 296 295 293 291 287 286 289 289 291 291 295 294 297 302 301 302 302 302 304 303 304 308 309 309 310 312 314 315 317 319 318 318 317 316 315 315 316 320 322 325 327 327 326 326 326 327 328 329 330
309 310 307 307 307 305 304 304 303 303 302 302 302 301 300 298 298 297 297 297 297 295 295 295 294 295 294 294 293 293 294 295 296 295 295 295 295 295 294 291 290 287 286 286 288 288 291 294 292 296 299 300 299 300 300 301 303 305 305 307 309 310 310 311 311 314 317 318 317 317 315 314 316 320 322 323 325 324 326 327 328 328 328 328 327
310 308 306 304 304 304 302 302 302 302 301 301 300 299 298 297 296 296 296 296 294 294 294 293 293 293 293 292 292 292 293 293 293 294 294 295 294 294 293 293 293 289 288 286 286 290 290 293 294 293 296 297 297 297 298 298 302 302 303 304 306 307 309 310 310 311 312 313 315 316 317 316 318 321 321 321 321 323 324 324 324 324 326 324 322
307 304 303 302 301 301 300 300 300 299 299 299 299 298 297 295 296 294 294 294 292 292 292 292 292 292 291 290 291 291 292 293 293 293 294 294 293 293 293 293 293 292 290 289 286 290 293 291 293 295 295 295 296 296 296 296 299 299 299 303 304 307 309 308 309 309 309 309 310 311 313 314 320 323 323 323 323 323 321 322 321 322 320 316 315
303 302 300 299 299 298 298 298 297 297 297 298 297 296 295 294 294 293 292 292 291 290 290 291 290 290 290 289 290 291 292 292 292 293 293 293 293 293 292 292 292 292 292 289 288 287 293 292 293 294 295 294 295 294 295 295 297 301 301 301 301 304 304 306 307 308 308 308 308 308 309 313 318 321 321 321 320 319 318 319 318 315 310 311 313
301 299 298 298 297 297 296 297 295 295 295 295 296 295 294 293 292 292 291 290 289 290 290 289 289 290 290 289 290 291 292 292 292 293 293 292 292 293 293 292 291 292 291 290 288 288 291 294 293 292 294 294 293 294 293 294 295 296 298 297 298 298 300 303 305 307 307 307 307 307 306 307 309 311 314 318 317 314 314 314 310 308 310 313 313
299 297 297 297 296 296 295 295 294 294 294 294 294 294 292 291 291 291 290 289 289 289 289 288 289 289 289 289 290 291 292 291 291 291 291 291 291 291 291 291 290 291 292 289 288 288 287 290 291 292 292 293 291 294 293 293 293 295 294 294 295 297 298 301 302 303 306 306 306 306 305 304 304 304 306 313 312 306 304 305 305 307 310 310 310
298 297 296 295 295 294 294 293 293 293 293 293 292 292 291 290 289 289 289 289 288 288 288 288 288 289 289 289 289 290 291 290 290 290 291 290 291 290 290 290 290 290 290 290 288 286 286 287 290 289 290 291 291 291 292 293 294 294 293 293 294 296 297 297 298 300 303 305 306 305 305 305 304 302 303 307 308 305 305 305 305 304 305 306 307
296 296 295 294 294 293 293 292 292 292 292 292 291 290 290 289 289 289 289 289 288 288 288 288 289 288 288 288 289 290 289 289 289 290 290 290 289 289 289 289 289 289 289 289 289 287 286 285 287 288 289 289 290 291 292 293 292 292 293 293 294 293 294 295 295 297 301 305 306 305 305 305 304 303 304 305 305 305 304 304 304 304 305 305 306
296 295 295 294 293 293 292 292 291 292 292 291 289 289 290 290 289 289 288 288 288 288 288 288 290 288 288 288 288 290 289 288 289 289 289 288 288 289 288 289 289 289 289 289 289 288 287 286 287 289 290 289 290 291 291 290 291 292 292 292 292 292 293 295 297 301 304 305 305 306 306 305 304 305 305 305 304 304 304 304 304 304 304 304 304
295 294 294 294 293 292 292 292 292 292 292 291 289 288 289 289 289 289 289 288 288 288 288 288 288 288 288 288 289 290 289 288 288 288 288 288 288 288 288 288 288 288 288 288 289 288 288 287 287 287 289 289 288 289 291 291 290 289 290 291 292 292 293 293 294 295 298 299 302 305 306 306 304 304 306 305 304 304 303 304 304 304 304 304 303
294 293 293 293 293 292 292 292 292 292 292 292 290 288 288 288 288 288 288 288 288 288 288 288 288 288 288 288 288 289 290 289 289 288 288 288 288 288 288 288 288 288 288 288 288 287 287 287 287 288 288 289 289 288 290 291 290 290 288 288 288 291 292 292 292 294 296 297 300 303 304 306 307 308 306 304 304 303 303 304 304 305 305 304 303
292 292 291 291 291 291 291 292 292 292 291 292 292 290 288 288 288 288 288 288 287 287 288 288 288 288 288 288 288 289 290 290 290 289 288 288 288 287 288 288 288 287 287 287 287 287 286 286 286 286 287 287 288 290 291 290 289 289 290 289 287 288 289 291 292 292 294 296 297 299 303 307 308 307 306 304 305 304 304 305 305 306 307 305 303
293 291 291 291 290 290 290 291 291 291 291 291 292 292 290 288 288 288 288 287 287 287 287 287 287 287 287 288 288 290 292 292 293 292 291 291 288 287 287 288 288 287 286 286 286 286 286 286 285 287 286 286 287 287 287 287 287 287 289 290 288 289 290 290 291 294 295 295 298 300 302 305 306 306 306 306 306 305 306 306 307 307 307 304 303
292 292 291 291 290 289 289 289 290 291 291 292 292 292 292 291 288 287 288 288 287 287 286 286 286 287 287 287 288 292 291 291 291 290 289 290 291 290 288 288 287 286 286 285 285 285 285 285 285 285 285 285 286 287 287 288 289 290 289 289 287 288 289 288 290 293 295 296 298 299 301 305 305 305 303 304 307 307 306 305 308 309 306 303 302
291 291 290 289 289 289 289 289 289 290 290 291 291 290 289 291 290 288 287 287 287 286 286 286 285 286 286 287 288 290 289 289 289 289 289 289 289 290 290 291 290 287 285 284 285 286 285 285 285 286 286 285 287 288 288 289 290 289 289 289 289 288 287 286 285 290 295 297 296 296 297 302 304 303 303 303 307 305 305 307 304 304 303 303 302
291 290 290 289 289 289 289 289 289 289 290 291 290 290 289 289 290 288 287 286 287 286 286 286 285 285 285 286 287 288 287 287 287 287 288 289 289 289 289 289 288 288 288 286 285 285 285 285 285 286 286 287 287 289 289 289 289 289 290 289 289 288 288 287 287 287 293 296 294 294 293 298 301 301 302 303 305 307 307 305 302 302 302 302 302
290 289 288 288 288 288 288 288 288 289 289 290 290 290 289 289 288 288 286 286 287 286 286 286 286 285 285 286 287 287 286 289 288 287 286 287 289 289 289 288 287 287 286 286 288 288 288 286 286 286 287 288 288 289 290 290 291 289 289 289 289 289 289 288 288 289 292 296 294 291 291 295 298 300 300 305 307 307 306 303 303 302 302 301 301
289 289 289 288 288 288 288 287 288 289 289 290 289 290 289 289 288 287 286 286 286 286 286 286 286 285 285 285 286 285 286 285 286 286 286 286 286 285 285 285 284 285 286 287 288 288 289 288 287 286 289 290 289 290 292 292 290 289 289 289 289 289 289 289 291 292 294 295 292 292 290 293 297 298 299 303 304 306 306 303 302 302 301 301 301
289 289 288 288 289 289 288 288 288 288 289 289 289 289 290 289 288 287 286 286 286 286 286 286 286 285 285 286 286 285 285 285 286 287 286 286 285 284 283 283 283 284 284 285 286 286 287 288 288 289 290 290 290 290 291 293 292 292 292 290 291 291 291 292 292 293 293 296 295 293 288 293 297 297 298 300 301 302 302 302 302 301 301 301 300
291 290 290 289 288 287 287 287 287 287 289 289 289 289 289 289 288 286 286 285 285 285 285 285 285 285 285 286 286 285 285 285 287 287 287 286 284 282 282 282 282 283 284 287 287 287 289 288 289 289 290 290 291 291 292 292 292 292 293 293 292 291 289 288 287 290 291 294 296 293 290 291 296 296 299 298 299 301 302 303 303 302 301 301 300
289 289 289 289 289 288 288 287 286 286 287 289 289 289 289 290 288 285 286 285 285 285 285 285 285 285 285 286 286 285 285 285 287 285 285 287 283 282 281 281 281 282 282 284 286 287 288 289 289 290 290 290 290 290 290 291 291 292 291 290 289 290 288 286 287 289 289 293 295 296 294 292 296 296 297 298 299 300 301 302 303 302 301 300 300
289 289 290 289 290 290 288 287 287 285 285 289 289 289 289 289 288 285 285 285 285 285 284 285 285 284 285 288 288 285 284 284 285 285 285 286 283 282 281 280 280 280 281 283 284 286 288 288 288 289 290 290 290 290 290 290 289 292 290 287 290 290 288 288 287 288 290 292 293 297 294 294 295 295 295 297 299 300 300 301 303 303 301 300 299
289 290 290 287 287 287 288 289 290 286 285 288 289 289 288 288 288 286 285 284 284 284 283 284 284 283 283 285 287 286 285 285 285 284 284 285 283 282 281 280 279 279 280 282 283 283 284 285 287 289 289 290 290 289 291 290 290 293 291 290 291 290 288 289 288 288 287 289 296 300 294 294 294 294 294 296 295 297 299 300 301 301 302 303 302
Wind_Speed
6 5 5 6 6 6 6 6 6 6 6 6 6 6 6 6 6 6 6 6 6 6 6 6 5 5 6 6 7 6 7 6 6 6 5 5 5 6 9 9 8 9 10 11 12 13 12 2 5 6 8 11 14 13 14 16 15 16 15 14 14 13 12 13 16 17 17 17 17 17 16 16 16 15 15 14 13 12 13 13 14 15 14 13 13
5 5 7 6 6 6 7 6 6 6 6 7 6 6 6 6 6 6 6 6 6 6 6 6 7 6 6 6 6 6 5 6 6 6 5 6 6 6 11 12 10 9 9 10 11 12 11 6 4 6 9 14 14 15 16 16 16 15 16 17 15 14 13 14 15 17 18 18 18 18 18 18 17 16 15 14 12 12 14 15 14 14 15 16 15
6 6 6 6 6 7 7 6 7 7 6 6 5 6 5 6 6 6 6 6 6 5 5 5 6 6 6 6 5 5 5 5 5 5 6 6 7 6 8 14 15 13 11 10 10 9 9 7 4 13 10 11 12 12 14 15 16 16 17 17 17 16 17 16 16 16 18 18 18 18 17 17 17 15 14 14 13 14 15 16 15 15 15 15 15
6 6 6 6 6 6 6 7 6 6 6 6 6 6 5 6 6 5 5 5 5 6 5 6 7 6 7 7 6 6 6 6 6 6 6 7 6 6 7 8 15 18 17 15 12 11 9 6 8 10 8 9 11 12 14 14 15 15 16 16 16 17 18 18 18 16 17 18 13 14 14 15 16 15 14 14 14 15 15 16 16 16 15 16 16
5 6 5 6 6 6 7 6 6 5 5 7 7 7 7 7 8 6 7 7 7 8 6 5 6 7 6 6 6 7 6 5 6 7 7 7 7 6 6 7 8 14 19 20 18 15 12 8 4 7 5 7 11 13 14 14 14 14 14 15 16 17 18 18 18 17 17 15 12 12 16 12 11 11 14 16 14 14 15 15 16 17 17 18 17
5 6 5 5 6 6 6 6 5 5 5 6 7 6 7 7 7 6 7 7 7 6 6 7 6 5 6 6 6 6 6 5 6 6 5 6 6 6 6 7 8 7 8 16 19 19 16 12 5 4 5 4 8 11 11 11 12 13 14 15 15 16 17 18 17 16 16 16 17 14 16 15 16 16 14 15 16 15 14 15 16 17 16 17 18
5 5 6 6 6 6 6 5 5 5 6 5 5 5 5 6 6 7 6 7 6 5 5 5 6 6 5 4 6 5 6 6 6 6 6 6 7 6 7 7 7 7 7 7 11 18 18 17 13 10 10 9 8 8 9 9 10 11 12 14 15 15 17 17 16 16 16 13 17 15 15 18 18 18 17 17 17 18 16 15 16 16 17 16 17
5 5 6 5 5 5 5 5 6 5 6 6 6 6 6 6 6 6 7 7 7 7 5 6 6 5 4 4 4 5 6 6 7 6 6 5 6 7 7 7 7 8 8 7 6 9 17 17 16 15 14 14 13 12 12 11 11 11 11 12 13 14 15 15 14 13 13 9 13 14 18 19 20 20 20 19 19 18 18 18 16 16 17 18 17
5 5 6 5 5 5 5 5 5 5 5 6 6 5 5 5 6 5 4 5 6 7 7 5 5 5 4 4 4 5 6 6 6 5 5 7 7 7 7 7 7 8 7 6 7 6 11 16 16 17 17 16 15 14 13 13 13 12 12 12 13 14 14 13 10 11 11 10 16 18 18 20 20 20 19 18 18 18 17 15 15 16 18 18 19
5 5 5 4 4 4 5 6 5 5 5 6 5 4 4 4 5 5 5 5 6 7 7 6 4 4 4 3 4 4 5 6 5 5 6 6 6 7 6 6 6 6 5 6 6 6 6 10 13 15 16 17 17 15 14 14 13 13 13 13 12 12 13 12 8 7 8 14 15 15 16 16 17 18 17 19 19 18 20 17 20 18 18 20 20
4 4 5 5 5 5 5 5 5 5 6 6 6 6 5 5 5 5 5 4 5 6 5 6 5 3 3 3 3 4 3 5 4 6 6 6 6 6 5 6 6 5 6 6 5 6 7 6 6 6 8 16 16 17 16 15 14 13 13 13 13 13 13 12 10 9 8 12 13 15 15 15 16 17 20 20 20 19 21 22 21 19 19 19 20
4 4 4 4 5 4 5 5 5 5 5 5 5 5 5 6 5 4 6 6 5 6 6 5 4 3 3 4 4 3 3 4 6 5 5 6 6 5 6 5 6 5 6 5 6 6 6 7 6 6 5 9 15 16 17 17 15 13 13 14 13 14 14 13 12 8 3 7 10 12 12 11 17 18 17 18 19 21 22 22 22 21 20 18 18
3 4 4 4 4 4 5 5 4 4 3 3 3 4 3 3 4 3 4 6 6 8 8 5 6 6 5 6 6 4 3 3 5 6 6 5 4 5 5 5 6 7 6 5 6 7 6 7 6 6 6 6 8 13 16 16 16 14 13 13 13 13 12 12 11 6 4 6 7 7 8 13 14 15 15 15 15 17 21 22 21 21 22 22 22
2 3 3 4 5 4 4 4 4 3 2 2 2 4 6 6 5 5 2 3 5 7 8 6 6 5 5 6 7 6 2 3 3 6 5 5 5 5 5 5 5 6 5 6 6 6 6 6 6 7 7 6 6 6 7 9 10 16 15 13 12 13 13 12 10 7 6 7 7 7 10 11 13 12 12 14 16 17 18 20 21 22 22 23 24
4 2 3 3 3 3 3 3 4 3 4 5 5 6 5 6 6 4 6 3 2 3 7 6 5 1 1 2 5 8 7 7 6 7 4 4 4 4 4 4 6 5 4 5 5 6 5 5 6 6 6 7 6 6 6 7 10 15 14 14 13 12 12 11 10 8 4 4 6 5 9 11 11 12 13 14 14 14 15 18 20 22 23 23 23
3 2 2 3 3 3 3 4 3 3 3 4 5 6 6 6 6 5 3 6 6 5 3 5 5 4 6 3 2 1 6 6 7 9 3 5 5 4 3 4 5 5 4 5 5 5 6 5 6 6 6 6 5 6 6 6 10 11 12 13 13 13 12 10 10 9 7 5 4 3 6 10 12 13 13 13 14 15 15 16 17 19 20 22 22
3 3 2 3 2 3 4 3 4 4 3 4 5 5 5 4 3 4 5 3 7 5 4 5 6 4 4 3 4 4 1 6 6 6 3 6 4 4 4 5 5 4 5 6 6 5 5 6 6 6 7 6 6 6 5 6 6 6 7 10 13 12 11 11 11 10 8 5 4 6 6 6 6 8 10 11 12 13 14 15 16 15 16 18 19
3 3 4 3 4 4 4 4 5 5 3 4 3 4 5 5 4 3 5 3 2 5 6 5 3 4 5 3 4 3 6 6 4 9 4 6 7 4 6 5 5 5 4 5 7 7 5 6 6 6 6 6 6 5 5 5 5 5 4 6 12 11 11 11 11 11 10 8 5 6 6 7 7 7 8 10 11 11 12 13 13 14 14 15 18
4 4 4 3 3 4 3 3 3 3 2 3 5 5 5 4 3 4 4 3 5 6 6 5 6 2 5 3 2 1 2 4 7 6 11 5 5 4 6 4 5 4 5 6 6 6 7 5 6 6 6 6 6 6 6 5 6 7 10 10 10 10 10 10 10 10 10 10 8 7 7 7 8 8 8 9 9 9 11 12 11 12 13 15 16
4 4 4 4 2 3 4 4 4 4 2 4 4 4 5 4 3 2 3 3 4 5 6 5 6 6 6 6 6 4 1 3 4 4 5 10 15 6 5 4 6 5 5 7 6 7 7 7 7 7 7 6 6 6 6 6 5 5 5 10 10 9 9 9 10 10 10 10 10 9 9 8 9 9 9 9 9 8 9 11 11 13 14 14 16
3 3 3 3 2 3 3 4 4 5 3 4 4 4 4 5 7 7 7 6 5 4 4 6 6 5 6 5 5 5 6 4 2 3 4 7 8 10 15 9 5 6 5 4 6 5 6 7 7 7 6 7 7 7 6 6 6 5 5 10 11 10 9 7 8 9 9 10 10 10 9 9 9 9 9 10 10 10 9 8 9 9 10 12 13
6 4 4 4 4 4 3 4 4 5 4 5 6 7 7 7 6 6 5 7 5 5 6 5 5 5 5 4 6 5 4 4 4 6 4 4 7 10 10 14 16 12 6 5 5 8 7 6 7 7 7 8 7 7 7 6 7 5 6 10 12 13 11 9 8 9 9 9 9 10 10 10 10 10 10 10 11 11 11 9 9 7 7 10 12
5 5 4 4 4 3 4 6 5 5 6 7 7 6 6 6 6 7 8 8 7 7 7 7 5 6 7 6 5 5 4 5 7 6 5 5 7 7 9 8 10 14 11 8 7 9 9 7 7 6 7 7 7 7 7 7 7 7 12 12 13 13 13 12 11 10 11 11 10 10 11 11 11 10 10 10 11 12 13 13 11 9 8 8 10
4 5 6 6 7 7 6 6 7 7 7 6 6 6 6 7 8 8 8 8 8 7 8 8 9 7 7 6 5 5 5 5 6 6 6 7 7 9 9 10 9 6 10 11 10 7 5 8 8 8 7 6 7 6 7 7 7 12 11 11 12 13 14 14 13 13 13 13 12 11 12 12 12 12 11 11 11 12 13 13 11 3 5 8 11
6 6 7 9 7 8 8 7 7 7 7 8 7 9 8 9 8 9 9 9 7 8 7 7 7 7 6 5 4 5 5 4 5 5 5 5 6 8 8 7 11 11 8 9 9 8 7 7 5 6 7 7 7 7 6 6 7 8 13 8 12 12 14 16 16 16 15 14 13 12 13 13 13 13 13 12 12 12 13 12 6 6 7 9 11
5 6 6 7 6 6 6 7 7 8 8 9 9 9 9 8 8 9 9 7 7 8 7 7 7 7 6 7 6 6 5 6 6 5 6 7 8 9 11 8 7 12 8 7 8 10 5 7 9 8 8 8 7 7 6 7 7 11 16 14 10 12 13 17 18 17 17 16 14 14 13 13 14 13 14 14 13 9 6 4 6 7 9 10 11
6 4 6 6 6 8 8 9 9 9 9 9 8 9 8 8 8 8 7 7 7 7 8 8 8 10 9 7 7 7 8 8 7 7 7 7 8 9 9 13 11 4 9 8 8 7 11 9 9 11 7 8 9 10 11 11 13 18 20 12 8 10 13 16 18 19 18 17 16 15 14 13 13 14 15 14 10 6 6 7 8 9 9 9 9
4 4 6 7 8 8 8 9 9 9 9 9 9 8 8 8 7 7 8 6 7 10 7 8 9 9 9 8 7 8 8 8 8 7 8 7 7 6 7 8 11 15 8 8 5 8 7 11 9 8 12 12 10 10 14 15 11 20 19 12 11 9 11 15 18 19 20 18 17 16 15 13 13 14 14 12 10 7 8 8 8 7 6 7 7
5 5 8 8 8 8 8 8 9 9 9 9 8 7 7 8 8 8 8 7 8 9 8 8 8 8 7 9 8 7 8 8 8 8 8 7 7 6 6 7 9 9 12 14 8 6 9 7 10 8 9 11 12 13 13 11 13 15 12 12 11 10 13 18 19 19 18 18 17 16 13 12 11 13 14 12 9 8 5 4 4 5 6 5 6
7 6 7 8 8 9 8 9 8 9 8 8 8 8 7 8 7 7 7 7 7 7 9 8 9 8 9 8 9 8 8 8 8 8 8 7 7 8 7 8 7 9 10 14 16 5 8 7 7 11 11 12 13 13 12 14 17 17 14 13 11 11 16 19 19 19 20 21 18 13 12 11 10 12 13 12 9 5 3 3 3 5 6 5 6
7 7 8 8 7 8 8 8 8 8 8 8 8 7 8 8 8 8 8 8 8 8 9 9 8 9 9 9 9 8 8 8 8 8 8 8 8 8 8 8 7 8 10 11 16 10 4 13 11 10 13 14 13 13 14 14 16 19 16 13 12 15 19 16 18 18 20 21 20 14 11 11 10 9 9 9 9 6 3 2 3 4 5 6 8
8 8 8 8 7 8 8 8 8 8 8 8 7 7 8 8 8 8 8 9 9 9 8 8 7 8 9 9 9 8 8 7 8 8 8 9 9 8 8 8 8 8 9 11 13 19 12 12 14 13 13 15 14 13 14 13 14 21 14 13 14 18 13 12 15 17 17 19 20 17 12 11 11 10 9 9 8 7 5 2 2 4 6 8 9
7 9 9 8 8 8 8 8 8 8 8 8 7 7 8 9 8 8 9 9 9 8 8 9 9 8 8 7 7 8 7 8 7 8 9 9 9 8 8 9 10 10 10 10 13 16 15 9 13 14 14 14 14 12 15 14 14 14 16 15 15 13 13 12 12 15 16 17 19 19 13 12 11 11 10 9 8 6 6 3 4 6 6 7 8
8 8 8 7 8 8 8 8 8 8 8 8 8 8 9 8 8 7 8 8 8 8 7 8 8 6 6 6 8 9 8 9 10 10 9 10 10 10 10 9 9 9 9 11 12 13 18 16 13 14 14 14 15 13 13 16 15 14 16 16 14 13 12 12 12 12 17 18 18 20 15 12 12 12 11 11 10 8 7 6 5 5 5 6 6
8 8 8 8 8 8 9 8 8 8 9 9 8 8 8 9 8 7 7 8 8 8 8 8 8 7 7 8 8 8 8 11 11 10 10 11 11 11 11 10 11 11 11 11 11 14 16 17 14 15 14 14 14 16 16 14 15 14 16 15 15 13 12 13 13 12 17 19 19 18 16 13 15 12 12 12 11 10 9 7 6 6 6 6 5
9 8 9 8 9 9 9 8 8 8 8 8 9 9 9 8 7 7 7 7 6 6 6 7 8 8 8 7 8 8 10 10 11 10 9 11 11 10 11 11 11 12 11 11 11 12 14 16 17 15 15 15 16 15 14 14 15 15 15 14 14 15 15 13 13 13 15 19 17 18 15 12 15 13 13 13 12 11 9 8 7 7 7 6 4
8 8 8 8 9 9 8 8 9 8 8 8 8 7 7 6 6 6 6 5 5 6 6 6 8 7 8 8 8 7 8 9 11 10 10 13 11 11 11 11 11 11 11 11 12 12 14 16 18 16 15 16 15 15 14 15 14 15 15 15 13 14 15 13 12 11 15 16 15 14 14 11 14 17 15 13 12 10 9 7 7 8 8 6 4
9 8 9 8 8 8 8 8 8 8 7 7 7 6 6 5 5 4 5 5 5 5 6 6 6 6 6 8 8 8 9 9 11 12 12 13 12 12 13 12 12 12 12 13 12 12 13 14 15 18 15 15 17 14 15 14 15 15 17 16 15 13 12 12 11 11 10 11 10 10 10 9 12 17 15 13 12 10 8 8 8 8 7 5 4
9 9 8 9 7 7 8 7 8 7 6 5 5 5 5 5 5 5 5 5 5 5 5 6 6 6 7 8 8 9 9 12 13 13 13 13 11 13 13 13 13 13 13 12 12 12 12 12 13 13 16 14 11 16 14 14 15 14 17 17 16 12 11 10 13 10 10 12 14 15 14 13 11 10 14 14 12 11 9 9 8 8 6 6 5
9 8 8 7 7 7 7 7 7 6 5 5 4 4 5 5 5 5 5 6 6 5 6 6 6 7 7 8 8 9 9 11 12 12 12 12 12 12 12 12 13 13 13 12 12 11 11 11 11 13 12 13 13 14 14 13 14 15 12 14 16 15 14 13 12 12 12 12 12 11 9 9 9 12 16 13 11 10 9 8 8 8 8 6 6
8 8 7 6 8 8 7 6 6 5 4 5 5 4 3 5 4 4 5 6 6 7 7 7 7 7 7 7 8 9 12 15 18 15 15 15 12 13 13 13 14 13 13 12 12 12 12 12 13 12 13 13 12 15 14 12 14 15 16 15 17 16 14 15 14 10 11 12 11 10 9 8 7 7 9 7 8 10 9 9 6 8 8 7 6
8 7 6 7 7 7 6 6 5 4 5 5 9 12 9 4 4 4 4 5 5 5 6 7 7 7 8 7 8 14 16 17 17 17 18 19 19 15 14 14 15 14 13 12 12 12 12 13 12 13 15 14 14 13 15 15 12 13 14 13 15 17 15 13 14 9 9 11 11 9 8 7 7 7 7 8 8 9 6 6 6 5 7 8 7
7 7 6 7 6 5 5 5 6 5 6 5 10 8 9 9 5 4 4 5 5 5 5 6 7 8 8 8 7 10 13 14 13 17 18 20 19 19 20 19 17 15 14 14 12 12 13 13 13 14 14 17 17 16 16 15 15 13 11 8 10 12 13 12 14 11 8 10 11 11 11 8 6 9 9 8 8 6 5 5 6 8 8 8 8
7 6 7 6 5 5 4 5 4 5 5 9 7 8 8 9 8 5 4 4 4 5 5 6 6 7 8 8 8 8 9 13 13 12 16 19 19 20 19 18 18 19 18 14 14 13 13 13 13 12 14 14 17 16 15 15 13 12 11 10 11 9 10 10 12 13 9 10 11 10 12 9 7 7 9 8 6 4 5 5 8 7 8 8 7
6 7 6 5 5 4 4 4 4 4 4 9 8 9 9 9 9 6 4 4 5 5 6 6 6 7 8 8 8 9 7 17 13 13 14 15 18 20 19 18 17 17 17 19 18 14 13 14 14 15 13 14 15 14 15 17 15 14 13 10 9 10 8 8 12 11 10 9 9 10 10 11 7 7 8 8 3 3 3 5 7 7 7 8 8
6 6 5 5 4 4 4 3 3 3 4 10 10 11 9 9 9 6 4 4 5 5 6 6 6 7 8 9 9 10 9 11 11 14 15 14 14 13 12 11 11 15 16 17 17 19 17 12 12 15 14 13 12 14 17 16 15 14 11 11 11 10 11 10 10 10 9 8 9 8 11 12 7 7 6 7 3 2 2 3 5 6 7 8 9
6 5 5 5 4 3 2 2 3 4 5 12 10 11 10 9 9 6 4 4 4 5 5 6 7 7 8 8 9 9 11 11 12 18 16 15 13 11 12 13 13 12 11 10 12 13 12 12 11 11 12 14 14 17 16 15 17 13 12 15 12 11 12 10 10 8 10 8 9 8 9 10 6 7 7 3 2 3 3 4 4 4 5 7 8
5 4 4 3 3 2 1 2 3 5 5 11 10 11 11 8 9 5 4 5 5 5 6 6 7 7 8 9 11 11 12 12 18 23 20 16 12 12 13 13 14 13 11 13 17 18 16 15 14 14 14 16 20 17 17 16 16 15 12 9 9 9 8 8 8 8 9 7 6 7 8 9 8 7 5 2 0 3 4 4 4 3 4 7 8
6 5 4 3 2 3 4 4 5 4 4 9 11 12 12 11 7 5 5 5 5 6 6 6 6 8 8 12 12 11 12 12 20 22 22 21 13 13 13 13 12 13 12 13 20 22 23 25 24 22 20 19 20 22 22 25 21 19 11 8 9 7 7 8 9 8 8 4 5 6 9 11 8 6 4 2 3 4 4 4 4 3 2 5 7
6 5 4 3 1 1 3 3 5 5 4 8 12 11 13 13 9 6 5 5 5 7 7 6 7 8 10 19 17 12 13 14 22 22 23 18 14 13 14 16 15 14 14 14 13 14 23 23 22 19 17 18 22 21 22 23 23 20 11 10 9 6 8 8 8 8 7 6 7 6 7 7 4 1 2 1 3 4 4 4 4 4 4 5 7
5 5 4 3 4 4 4 4 7 5 5 6 10 11 12 12 9 5 5 4 6 7 7 7 8 8 9 11 18 16 17 18 22 22 22 19 13 12 14 15 16 16 16 16 15 15 15 15 13 14 14 18 17 15 18 25 23 22 12 12 10 7 8 8 7 6 7 6 5 4 6 4 5 2 2 2 3 3 3 4 4 3 4 4 5
Wind_Direction
40 25 29 38 25 26 27 27 23 15 9 24 22 12 20 16 18 15 13 11 9 3 1 360 7 15 9 360 357 349 347 341 339 336 338 337 323 323 333 329 317 303 289 281 276 274 271 288 226 206 214 226 234 236 243 244 241 242 243 236 232 235 238 240 230 227 226 226 226 226 227 225 229 230 230 231 227 225 226 228 225 225 224 219 229
42 28 41 31 26 24 29 21 24 13 15 21 7 17 14 16 16 17 14 9 11 360 1 355 3 11 11 360 356 348 335 339 340 347 348 356 357 345 355 356 350 336 321 308 298 291 294 4 332 263 222 224 228 230 236 247 250 249 249 247 243 242 243 241 241 233 229 228 227 225 226 226 227 228 229 232 232 229 227 227 226 227 223 220 221
44 38 39 35 29 28 23 15 23 11 9 16 8 18 17 24 15 12 13 2 4 354 2 358 356 7 6 4 351 336 348 344 343 358 12 12 9 3 2 14 14 12 2 348 337 328 329 71 335 271 245 241 240 243 245 250 253 251 249 249 247 245 245 245 244 243 235 229 227 228 228 227 228 227 229 233 230 230 231 232 224 225 225 223 221
42 43 44 37 31 29 21 24 13 5 10 14 16 16 20 16 19 16 15 8 1 9 7 8 2 2 356 2 349 353 355 351 360 5 14 16 8 6 6 15 19 22 21 19 11 7 12 46 165 255 259 241 250 250 254 257 259 261 257 251 248 247 244 242 242 243 244 239 237 239 232 237 234 232 233 233 228 228 230 231 228 223 223 225 222
37 45 44 44 37 30 24 19 8 4 10 15 22 17 20 17 16 5 17 13 12 5 360 17 8 353 355 1 349 353 349 352 4 11 12 9 11 2 15 18 16 23 24 25 30 33 31 41 113 253 253 237 238 249 254 265 265 261 260 255 248 246 248 247 247 248 246 247 235 242 257 254 267 260 254 245 236 227 225 225 225 225 224 224 223
39 42 44 43 39 37 24 15 359 2 17 22 26 17 20 22 8 16 12 15 5 354 0 0 355 341 1 354 351 354 341 358 10 13 7 17 3 15 16 25 24 23 20 21 24 29 33 42 54 293 288 272 273 278 285 284 280 276 272 269 263 258 254 252 249 244 252 249 248 231 237 243 245 244 244 254 250 238 229 224 225 226 224 227 227
36 51 44 42 41 33 26 1 356 9 25 20 31 25 24 22 11 17 9 11 354 354 360 346 347 344 344 347 354 347 357 8 5 17 16 10 18 18 21 22 28 25 23 19 16 20 28 32 30 17 360 357 341 320 312 307 297 288 284 279 272 263 256 254 254 251 245 247 240 233 232 242 242 239 238 238 244 241 233 229 227 225 220 224 227
40 42 55 41 42 40 16 7 12 22 23 17 25 24 8 19 15 25 18 6 354 348 348 341 339 336 337 346 346 359 12 13 18 14 9 13 25 19 20 21 22 25 23 20 15 14 22 21 18 14 16 15 9 357 343 331 320 312 304 293 282 272 269 263 262 259 249 238 275 240 229 232 234 237 238 238 241 244 238 234 230 227 224 223 226
34 41 60 43 40 40 19 19 18 33 27 20 25 15 25 12 6 8 31 352 350 337 334 342 330 329 328 345 0 8 25 17 15 14 2 28 22 20 21 17 19 22 20 19 13 11 14 18 12 6 5 5 3 0 354 344 332 320 312 306 297 290 286 284 278 271 264 233 224 239 232 233 230 236 239 239 240 244 248 250 250 234 227 223 225
37 43 57 52 47 40 24 23 21 29 32 28 15 6 29 34 11 345 349 354 345 340 331 329 327 331 340 9 1 15 26 21 17 19 15 13 19 21 12 13 15 15 14 9 12 9 7 11 11 3 360 357 354 356 353 347 339 328 316 308 304 299 296 301 290 260 254 256 226 233 242 251 246 240 240 242 239 243 245 233 238 242 239 233 227
42 47 62 49 42 28 35 15 25 31 36 27 14 3 10 12 28 344 342 327 329 323 318 310 316 327 1 18 13 5 7 24 20 21 18 5 5 12 5 15 6 11 6 5 1 5 6 8 3 357 349 350 350 349 350 348 342 332 321 310 301 298 298 297 287 270 232 235 242 237 235 234 249 246 242 239 239 234 237 237 234 235 238 239 238
39 48 68 59 48 30 30 20 26 39 41 29 5 5 356 356 350 348 345 334 339 337 345 342 324 355 22 31 25 14 22 29 21 19 7 6 350 353 9 360 6 358 2 357 352 355 1 3 360 357 345 343 346 347 344 344 345 340 327 317 311 305 299 296 299 315 324 283 279 274 268 248 243 252 252 245 246 242 237 242 241 241 241 240 242
46 40 51 57 52 37 38 28 16 46 44 12 313 336 348 334 326 325 355 351 344 349 354 352 10 9 2 5 12 7 22 31 29 12 3 354 350 347 353 357 355 354 349 343 347 350 353 353 351 346 350 339 339 341 341 342 343 341 333 324 321 319 312 303 301 311 278 251 248 252 239 256 262 256 250 251 248 242 238 237 239 235 234 237 238
39 53 45 47 47 36 33 25 20 19 34 338 3 6 2 3 4 348 5 358 347 344 344 349 28 38 0 341 348 354 329 328 18 19 353 347 342 339 343 345 343 338 335 339 341 342 342 344 343 343 343 341 336 335 338 340 339 339 342 341 333 330 326 317 309 316 277 279 270 251 239 247 254 262 262 251 246 244 243 238 235 234 231 228 229
11 37 58 41 53 53 20 5 30 359 26 17 5 7 357 352 359 4 337 6 329 335 1 19 26 63 116 70 10 352 340 351 350 357 352 321 328 324 323 325 326 325 327 327 330 332 331 336 336 338 335 338 332 332 330 332 334 343 351 353 351 351 351 348 343 345 340 291 289 285 267 250 247 251 251 253 255 253 249 247 243 238 232 228 228
21 35 66 55 64 43 357 24 6 20 68 23 4 355 352 353 359 360 37 360 6 341 23 9 37 356 15 39 290 134 334 356 332 310 321 313 309 299 290 307 312 314 325 331 321 315 313 321 323 328 323 322 324 322 326 321 334 341 348 352 355 6 5 4 360 0 3 3 324 249 234 254 242 244 251 255 256 254 252 250 249 244 237 232 228
24 15 23 34 19 32 21 351 353 358 22 20 359 333 317 307 327 3 26 33 355 343 336 22 17 32 50 17 355 17 38 278 317 278 312 320 281 272 274 301 303 305 322 316 307 298 303 311 309 314 317 314 315 318 314 320 324 334 334 339 351 3 7 5 2 359 2 352 333 332 331 322 298 278 272 267 264 258 254 256 256 250 245 239 235
18 20 4 8 4 5 10 8 356 349 352 347 302 331 342 344 345 330 4 37 319 3 341 352 26 33 67 122 146 342 313 309 7 321 275 239 270 243 280 280 277 305 309 304 309 309 309 304 300 300 304 304 304 305 307 306 313 314 310 321 342 350 356 2 3 1 360 358 339 325 322 312 305 298 293 285 275 268 261 260 256 254 255 252 245
349 12 10 345 354 340 350 339 306 305 301 1 349 345 324 302 324 353 353 342 27 1 348 323 341 352 23 31 349 297 230 313 323 302 320 312 196 285 300 262 291 302 300 298 300 300 297 297 300 294 292 293 293 291 291 293 298 303 311 317 330 338 344 350 356 358 356 354 348 327 313 302 294 291 291 291 285 270 272 271 267 259 252 253 255
343 353 357 340 307 315 330 332 331 331 307 343 319 313 325 323 317 286 307 37 18 17 334 3 12 327 348 353 350 339 105 254 227 274 291 311 319 297 204 300 316 284 273 290 290 287 296 303 299 293 286 287 280 279 284 288 277 286 295 300 310 319 329 338 344 347 347 347 346 343 329 310 290 285 284 289 291 282 254 256 253 249 246 247 250
344 326 321 305 306 307 320 327 338 326 313 317 319 313 321 324 342 354 353 348 14 5 16 354 359 348 341 360 338 355 322 315 352 30 319 313 303 316 318 311 266 255 280 251 271 269 274 285 280 287 291 287 282 271 273 280 283 267 277 287 296 302 307 318 327 331 331 332 334 335 333 324 305 286 285 284 287 286 283 273 265 256 251 252 254
328 328 328 319 316 306 321 319 314 302 315 328 325 334 342 348 359 356 2 4 5 18 27 11 21 12 28 342 15 345 354 358 11 340 307 253 290 307 311 323 325 318 306 284 298 301 289 273 271 278 279 270 271 273 263 265 276 272 268 273 289 295 294 300 308 313 315 315 316 316 319 317 311 300 287 284 281 283 280 275 269 256 252 257 263
314 313 308 310 323 327 349 338 338 347 347 350 349 341 346 357 359 17 25 23 15 31 38 37 34 32 26 26 18 14 357 342 334 338 330 317 313 301 304 301 301 304 313 318 305 294 291 283 284 277 272 273 264 274 271 264 267 267 267 272 281 286 285 288 296 303 307 306 304 303 302 305 306 297 287 281 278 277 277 274 270 251 242 257 268
320 329 327 349 357 351 355 356 2 357 1 356 359 1 4 23 39 42 41 42 40 43 43 34 27 26 26 12 11 2 6 358 340 328 336 324 312 303 307 314 296 274 303 310 308 304 295 293 288 283 284 286 284 273 278 273 268 272 274 271 272 275 278 277 283 292 299 301 299 298 294 291 294 295 288 277 272 271 274 273 273 309 281 282 281
327 333 341 9 2 359 3 5 4 7 14 30 32 38 46 50 50 49 44 39 35 38 41 34 27 26 7 354 1 8 6 347 334 337 324 312 312 313 313 316 305 305 309 318 314 322 313 297 297 305 298 288 284 281 282 281 279 283 281 278 269 265 270 271 272 282 290 292 293 294 293 288 284 286 285 274 263 263 267 280 286 270 274 275 276
303 347 354 349 13 11 24 36 37 40 44 47 46 43 45 49 46 46 42 32 29 33 34 27 30 23 10 7 9 5 359 351 346 342 347 346 347 341 326 316 301 304 304 305 319 319 322 333 317 305 293 288 299 315 316 311 311 301 298 292 280 275 271 270 270 274 282 284 285 287 288 288 286 285 284 278 267 262 261 252 257 264 268 271 270
5 338 342 18 33 49 51 49 44 47 48 48 44 45 42 45 43 38 37 30 28 28 27 21 21 16 14 13 4 8 3 355 352 354 354 357 349 345 342 331 319 274 306 312 305 297 310 319 327 322 328 343 347 343 338 335 329 325 321 312 304 287 278 275 270 270 273 276 277 281 283 285 286 285 283 280 270 195 213 240 254 263 268 273 280
350 15 29 54 59 58 55 53 49 49 48 47 45 43 37 43 39 33 33 19 28 29 24 22 24 17 13 8 12 10 0 357 356 357 356 352 346 344 343 341 335 322 323 301 312 304 329 318 315 328 344 338 339 335 329 326 324 324 320 316 310 301 285 281 276 270 269 267 269 271 277 280 280 281 279 271 259 232 211 221 241 259 268 271 284
39 56 65 57 60 58 59 54 51 48 49 44 43 41 40 42 37 31 30 16 27 27 20 23 21 14 14 13 13 2 2 356 358 356 352 346 346 342 345 341 330 316 321 318 314 337 319 322 320 323 327 331 330 327 322 314 313 311 306 307 308 306 300 293 286 277 269 263 258 259 263 268 271 276 272 264 259 246 214 207 236 251 261 268 281
73 71 68 63 57 57 58 57 53 50 47 43 40 37 38 43 37 36 27 21 28 27 24 21 18 14 14 14 12 6 0 356 355 349 349 347 347 347 342 336 331 322 318 314 307 333 312 322 318 312 323 324 322 314 317 314 310 308 302 301 302 305 306 303 295 286 279 273 260 245 246 252 260 267 270 265 262 256 227 221 242 261 272 286 278
73 73 68 64 61 56 57 56 51 48 44 40 35 35 34 39 33 30 23 24 29 28 23 20 16 14 13 13 9 5 359 353 354 353 356 355 352 346 340 338 332 325 318 311 306 303 2 310 309 304 308 312 312 312 307 303 305 308 302 297 300 305 308 304 303 297 289 278 265 246 232 237 239 245 262 275 283 285 264 225 242 267 296 294 285
74 72 69 64 58 58 54 53 48 44 40 34 31 31 35 37 31 30 23 27 31 29 25 23 20 17 15 14 8 3 353 352 356 354 353 352 349 343 340 339 332 326 318 310 302 300 313 310 306 308 312 312 311 309 307 309 306 303 312 317 316 315 308 301 299 295 292 287 275 256 235 229 224 226 237 249 260 275 279 237 222 271 284 281 284
69 70 68 64 60 59 55 50 45 41 36 32 27 30 35 34 34 33 29 30 31 26 24 23 19 16 10 4 360 357 352 351 351 348 351 348 341 336 337 337 332 330 323 317 307 304 303 306 308 309 315 316 308 316 311 309 310 315 318 314 315 310 304 300 303 301 297 292 285 271 242 221 215 215 221 228 230 239 256 231 204 228 258 278 284
73 75 71 68 65 59 57 48 44 39 37 34 28 32 36 37 36 33 29 28 32 27 23 21 11 4 353 354 358 358 355 354 351 350 348 344 342 337 337 333 329 324 322 316 309 304 303 310 313 311 310 315 307 312 309 309 309 310 310 310 308 305 305 309 309 305 302 298 291 281 256 226 213 207 206 218 217 225 233 239 222 214 247 275 285
77 73 71 70 63 60 57 48 41 38 33 34 31 36 38 38 38 34 31 29 28 22 17 12 6 356 358 357 350 348 357 356 352 347 347 346 343 337 332 331 326 322 320 316 311 307 307 305 313 313 317 316 311 311 312 307 306 306 305 306 309 310 310 312 307 303 298 295 291 288 272 243 231 207 203 207 210 215 226 233 227 220 223 232 252
82 75 69 66 63 58 56 48 42 40 34 35 38 37 38 36 36 34 29 28 23 17 12 2 3 359 354 348 345 347 6 354 352 347 347 343 339 333 327 323 318 316 315 312 305 302 304 306 309 314 313 313 312 309 308 306 306 306 307 304 304 305 308 307 300 293 289 285 285 287 280 246 246 230 204 201 206 212 223 226 225 224 224 226 240
81 81 74 65 62 58 54 50 47 41 39 41 41 37 34 31 32 29 24 20 14 11 6 357 359 350 346 340 331 331 2 354 354 349 344 340 335 329 325 322 318 314 310 308 304 300 299 299 305 309 309 308 310 310 309 308 308 304 304 304 303 303 304 302 300 296 299 304 298 292 290 260 242 242 219 201 201 209 220 230 236 233 224 211 215
83 75 73 67 64 62 57 54 51 47 43 48 44 35 28 25 25 25 20 14 8 1 356 351 345 344 335 333 331 326 347 358 351 346 341 336 332 329 327 324 320 314 310 308 306 304 299 296 298 306 310 313 313 312 313 308 306 306 304 304 303 298 299 306 307 305 305 303 306 304 296 276 251 248 233 204 202 200 209 227 234 235 223 213 203
82 77 71 70 64 61 58 55 51 44 40 45 55 37 24 14 17 18 12 8 3 353 354 345 339 336 340 341 332 328 330 352 347 345 342 337 334 329 327 326 322 318 315 313 313 308 303 300 298 293 300 303 306 307 309 308 300 298 301 304 303 303 301 300 304 304 301 297 292 289 286 279 264 244 233 214 202 195 204 218 224 227 218 205 197
78 76 73 72 67 61 54 53 49 45 35 40 50 54 29 18 7 5 359 7 357 352 348 343 344 342 342 337 332 319 329 352 346 344 344 337 334 330 330 326 325 324 321 319 314 310 306 304 301 301 296 299 301 298 300 302 302 298 299 300 300 302 304 302 298 302 303 297 293 294 283 265 256 246 246 232 205 198 200 208 219 216 207 200 192
82 78 74 73 71 64 55 49 42 32 32 28 34 47 78 25 3 357 358 358 354 349 346 346 344 341 339 335 324 330 354 348 347 347 344 341 337 333 331 329 328 326 322 318 315 313 310 306 303 299 297 296 294 296 297 298 294 291 297 299 294 293 294 297 298 297 293 290 285 281 285 279 258 241 228 213 216 210 212 212 217 212 203 196 193
86 81 78 70 68 64 62 50 42 32 36 35 33 28 25 42 13 359 352 353 348 341 344 343 342 344 342 334 329 346 356 349 348 348 345 342 339 333 329 331 331 327 323 319 317 314 311 310 307 307 303 298 295 291 290 286 278 280 283 284 288 293 295 291 291 290 303 297 298 309 310 300 266 250 225 234 212 197 196 197 205 195 195 196 190
86 87 77 72 64 60 59 56 47 42 40 37 32 26 23 23 32 6 354 342 340 343 344 345 343 344 341 340 337 351 351 344 348 348 344 342 338 334 330 330 330 329 324 321 314 312 313 312 309 306 301 299 297 293 287 285 285 274 263 260 272 281 285 292 295 301 301 308 315 312 303 320 293 264 235 230 203 189 188 192 190 194 196 195 189
91 85 75 70 66 60 59 52 47 45 42 35 24 31 27 25 25 15 335 338 342 348 344 344 342 342 339 336 340 354 349 348 348 344 342 343 338 334 331 329 330 329 325 318 314 313 314 314 311 307 306 302 305 304 298 295 285 277 270 261 263 259 267 272 278 285 305 305 303 314 305 309 308 288 268 238 202 175 175 174 183 199 192 192 186
96 83 79 74 64 57 52 56 51 38 38 33 24 28 26 23 17 11 341 338 348 351 343 341 340 342 338 339 341 354 346 348 344 345 344 341 338 334 329 327 326 328 326 318 315 318 318 314 313 313 313 311 310 314 316 313 295 281 276 272 258 251 252 257 268 277 283 300 317 303 296 297 302 287 280 263 226 158 148 167 184 189 190 183 181
94 93 90 82 78 71 69 60 47 25 39 28 24 22 22 21 16 9 342 344 343 343 343 340 341 339 340 340 343 350 349 344 342 350 346 340 339 333 330 329 326 326 326 322 324 325 322 315 307 309 310 315 314 312 315 315 302 283 273 272 262 257 257 251 260 272 282 285 282 291 287 288 287 276 263 266 281 80 104 133 169 184 183 176 180
108 113 116 111 97 79 61 26 59 43 30 27 20 20 17 20 13 9 347 347 343 348 346 347 343 340 337 338 345 352 349 345 350 351 346 344 342 338 337 335 330 326 320 322 329 325 317 312 306 305 310 316 315 316 316 318 320 306 274 264 263 262 262 266 269 271 273 257 254 257 273 287 296 266 242 224 331 102 106 95 98 143 163 168 177
102 104 96 97 102 116 84 24 37 26 16 26 16 19 12 14 18 4 352 347 351 349 353 349 346 345 336 345 355 355 352 345 352 350 348 346 345 343 342 337 332 327 324 326 325 320 318 317 314 312 311 316 320 322 325 326 326 323 306 268 267 263 264 260 268 271 274 273 238 252 271 280 271 244 238 103 202 125 97 89 86 127 160 161 170
119 121 137 134 145 128 79 55 35 18 334 23 20 17 11 12 19 2 353 350 352 357 356 343 340 352 346 356 356 358 351 349 351 349 350 351 349 347 343 338 335 330 329 331 329 329 329 325 319 306 304 317 330 332 334 331 326 329 331 299 267 264 259 259 263 277 279 284 266 245 254 262 257 218 224 116 137 111 87 74 79 55 140 149 157
132 145 150 133 134 80 80 102 65 34 339 22 24 13 16 15 19 6 347 348 354 354 348 349 358 356 352 357 358 358 355 351 350 350 351 353 353 349 347 347 346 342 337 337 333 332 328 326 323 314 312 328 338 337 336 330 323 333 338 331 300 252 256 256 272 281 296 288 277 260 280 275 322 321 115 149 114 62 70 74 68 64 60 111 144
131 137 120 84 67 32 28 14 48 49 10 11 25 15 18 16 18 5 356 351 1 1 354 356 1 353 344 350 354 359 357 351 349 351 351 355 351 351 349 349 349 345 341 335 334 332 330 330 332 336 337 341 345 342 335 331 327 342 340 332 315 240 245 262 269 284 280 279 266 253 247 294 298 303 103 210 108 71 61 68 63 52 54 84 131